Location: Darmstadt
(49.8706°N, 8.6494°E)
Time: 07:32:07
(UTC+01:00)

Cosmos 2184 Rocket - Pass Details

Date: 31 October 2020
Orbit: 960 x 1001 km, 82.9° (Epoch: 03 December)

Event Time Altitude Azimuth Distance (km) Brightness Sun altitude
Rises 20:26:27 0° 348° (NNW) 3,710 7.4 -32.9°
Reaches altitude 10° 20:29:00 10° 345° (NNW) 2,763 6.7 -33.3°
Enters shadow 20:34:49 61° 287° (WNW) 1,121 4.4 -34.2°
